TimePST,TemperatureF,Dew PointF,Humidity,Sea Level PressureIn,VisibilityMPH,Wind Direction,Wind SpeedMPH,Gust SpeedMPH,PrecipitationIn,Events,Conditions,WindDirDegrees,DateUTC
12:53 AM,30.9,19.9,64,30.21,10.0,Calm,Calm,-,N/A,,Partly Cloudy,0,2013-03-04 08:53:00
1:53 AM,30.9,19.0,61,30.22,10.0,NE,3.5,-,N/A,,Partly Cloudy,40,2013-03-04 09:53:00
2:53 AM,28.9,19.9,69,30.24,10.0,Calm,Calm,-,N/A,,Scattered Clouds,0,2013-03-04 10:53:00
3:53 AM,30.0,19.9,66,30.25,10.0,NE,4.6,-,N/A,,Partly Cloudy,50,2013-03-04 11:53:00
4:53 AM,27.0,19.9,75,30.26,10.0,NE,4.6,-,N/A,,Partly Cloudy,40,2013-03-04 12:53:00
5:53 AM,26.1,19.9,78,30.28,10.0,Calm,Calm,-,N/A,,Partly Cloudy,0,2013-03-04 13:53:00
6:53 AM,28.0,21.9,78,30.29,10.0,NE,5.8,-,N/A,,Partly Cloudy,50,2013-03-04 14:53:00
7:53 AM,30.9,24.1,76,30.29,10.0,ENE,8.1,-,N/A,,Partly Cloudy,70,2013-03-04 15:53:00
8:53 AM,34.0,24.1,67,30.30,10.0,ENE,6.9,-,N/A,,Partly Cloudy,70,2013-03-04 16:53:00
9:53 AM,37.0,19.0,48,30.29,10.0,East,5.8,-,N/A,,Partly Cloudy,100,2013-03-04 17:53:00
10:53 AM,39.0,19.9,46,30.28,10.0,SE,9.2,-,N/A,,Partly Cloudy,140,2013-03-04 18:53:00
11:53 AM,39.9,19.9,45,30.26,10.0,SSE,10.4,-,N/A,,Scattered Clouds,160,2013-03-04 19:53:00
12:53 PM,39.9,19.0,43,30.25,10.0,SE,5.8,-,N/A,,Scattered Clouds,140,2013-03-04 20:53:00
1:53 PM,39.9,18.0,41,30.22,10.0,SE,5.8,-,N/A,,Mostly Cloudy,130,2013-03-04 21:53:00
2:53 PM,41.0,19.0,41,30.21,10.0,Calm,Calm,-,N/A,,Mostly Cloudy,0,2013-03-04 22:53:00
3:53 PM,41.0,17.1,38,30.19,10.0,SSE,3.5,-,N/A,,Scattered Clouds,150,2013-03-04 23:53:00
4:53 PM,41.0,19.0,41,30.17,10.0,Calm,Calm,-,N/A,,Scattered Clouds,0,2013-03-05 00:53:00
5:53 PM,39.0,19.0,45,30.17,10.0,Calm,Calm,-,N/A,,Scattered Clouds,0,2013-03-05 01:53:00
6:53 PM,37.9,19.0,47,30.15,10.0,ESE,3.5,-,N/A,,Partly Cloudy,110,2013-03-05 02:53:00
7:53 PM,37.0,17.1,44,30.13,10.0,East,8.1,-,N/A,,Partly Cloudy,80,2013-03-05 03:53:00
8:53 PM,35.1,15.1,44,30.12,10.0,ENE,6.9,-,N/A,,Partly Cloudy,70,2013-03-05 04:53:00
9:53 PM,34.0,17.1,50,30.12,10.0,ENE,8.1,-,N/A,,Clear,60,2013-03-05 05:53:00
11:53 PM,30.9,18.0,59,30.09,10.0,ENE,10.4,-,N/A,,Clear,60,2013-03-05 07:53:00